Ardmore, OK

7:27 AM CDT on May 28, 2017 (GMT -0500)
Ardmore Municipal

Weather History for KADM - April, 2013

Change the Weather History Date:

Tuesday, April 23, 2013

  Actual Average Record
Temperature  
Mean Temperature 52 °F -  
Max Temperature 65 °F 72 °F 89 °F (2009)
Min Temperature 39 °F 53 °F 39 °F (2013)
Degree Days  
Heating Degree Days 13    
Growing Degree Days 2 (Base 50)    
Moisture  
Dew Point 49 °F    
Average Humidity 75    
Maximum Humidity 87    
Minimum Humidity 65    
Precipitation  
Precipitation 0.00 in - - ()
Sea Level Pressure  
Sea Level Pressure 29.89 in    
Wind  
Wind Speed 9 mph (East)    
Max Wind Speed 23 mph    
Max Gust Speed 33 mph    
Visibility 10 miles    
Events      
Averages and records for this station are not official NWS values.
T = Trace of Precipitation, MM = Missing Value Source: NWS Daily Summary

Daily Weather History Graph

Daily Weather History Graph

Search for Another Location

Airport or City:

Trip Planner

Search our weather history database for the weather conditions in past years. The results will help you decide how hot, cold, wet, or windy it might be!

Date:

Astronomy

Apr. 23, 2013 Rise Set
Actual Time 6:46 AM CDT 8:06 PM CDT
Civil Twilight 6:20 AM CDT 8:32 PM CDT
Nautical Twilight 5:49 AM CDT 9:04 PM CDT
Astronomical Twilight 5:16 AM CDT 9:36 PM CDT
Moon 6:06 PM CDT (4/23) 5:09 AM CDT (4/23)
Length of Visible Light 14h 12m
Length of Day
13h 19m
Waxing Gibbous, 94% of the Moon is Illuminated
Apr 23
Waxing Gibbous
Apr 25
Full
May 2
Last Quarter
May 9
New
May 17
First Quarter

Hourly Weather History & Observations

Time (CDT) Temp. Windchill Dew Point Humidity Pressure Visibility Wind Dir Wind Speed Gust Speed Precip Events Conditions
12:15 AM 65.8 °F - 53.6 °F 65% 29.81 in 10.0 mi SE 8.1 mph - N/A   Clear
12:35 AM 65.5 °F - 53.6 °F 65% 29.81 in 10.0 mi SE 10.4 mph 16.1 mph N/A   Clear
12:55 AM 65.3 °F - 53.6 °F 66% 29.81 in 10.0 mi SE 10.4 mph - N/A   Clear
1:15 AM 64.8 °F - 53.6 °F 67% 29.81 in 10.0 mi SE 9.2 mph - N/A   Clear
1:35 AM 64.6 °F - 53.6 °F 68% 29.81 in 10.0 mi SE 8.1 mph - N/A   Clear
1:55 AM 64.4 °F - 53.6 °F 68% 29.82 in 10.0 mi ESE 5.8 mph - N/A   Clear
2:15 AM 62.1 °F - 53.6 °F 74% 29.84 in 10.0 mi NE 8.1 mph - N/A   Clear
2:35 AM 62.6 °F - 54.0 °F 73% 29.83 in 10.0 mi East 6.9 mph - N/A   Clear
2:55 AM 62.2 °F - 54.1 °F 75% 29.85 in 10.0 mi East 6.9 mph - N/A   Mostly Cloudy
3:15 AM 62.6 °F - 54.0 °F 73% 29.83 in 10.0 mi ESE 8.1 mph - N/A   Scattered Clouds
3:35 AM 62.6 °F - 53.8 °F 73% 29.83 in 10.0 mi ESE 6.9 mph - N/A   Clear
3:55 AM 61.9 °F - 53.6 °F 74% 29.83 in 10.0 mi SE 9.2 mph - N/A   Clear
4:15 AM 61.7 °F - 53.8 °F 75% 29.82 in 10.0 mi SE 8.1 mph - N/A   Clear
4:35 AM 61.2 °F - 53.6 °F 76% 29.83 in 10.0 mi SSE 6.9 mph - N/A   Scattered Clouds
4:55 AM 60.8 °F - 53.8 °F 78% 29.83 in 10.0 mi SE 5.8 mph - N/A   Scattered Clouds
5:15 AM 60.8 °F - 53.8 °F 78% 29.82 in 10.0 mi SSE 9.2 mph - N/A   Mostly Cloudy
5:35 AM 60.1 °F - 54.0 °F 80% 29.82 in 10.0 mi SE 8.1 mph - N/A   Scattered Clouds
5:55 AM 60.3 °F - 54.7 °F 82% 29.82 in 10.0 mi SE 5.8 mph - N/A   Scattered Clouds
6:15 AM 60.3 °F - 54.5 °F 81% 29.83 in 10.0 mi Calm Calm - N/A   Mostly Cloudy
6:35 AM 60.8 °F - 55.6 °F 83% 29.85 in 10.0 mi North 4.6 mph - N/A   Mostly Cloudy
6:55 AM 55.4 °F - 46.4 °F 72% 29.87 in 10.0 mi NNW 18.4 mph - N/A   Overcast
7:55 AM 48.2 °F - 41.0 °F 76% 29.91 in 10.0 mi NNW 23.0 mph 33.4 mph N/A   Overcast
9:55 AM 42.8 °F 35.4 °F 39.2 °F 87% 29.99 in 2.5 mi NNW 15.0 mph 20.7 mph N/A   Light Drizzle
11:55 AM 42.8 °F 36.2 °F 39.2 °F 87% 30.06 in 2.5 mi NNW 12.7 mph 16.1 mph N/A   Overcast
12:55 PM 42.8 °F 34.5 °F 39.2 °F 87% 30.05 in 10.0 mi North 18.4 mph 23.0 mph N/A   Overcast
2:55 PM 42.8 °F 36.6 °F 37.4 °F 81% 30.06 in 10.0 mi NNW 11.5 mph - N/A   Overcast
11:35 PM 39.7 °F 32.7 °F 31.6 °F 73% 30.23 in 10.0 mi North 11.5 mph - N/A   Overcast
11:55 PM 39.7 °F 31.9 °F 31.6 °F 73% 30.22 in 10.0 mi North 13.8 mph 19.6 mph N/A   Overcast